Terminal Aerodrome Forecast
Issued by NWS Green Bay, WI

Home | Current Version | Previous Version | Text Only | Print | Product List | Glossary Off
Versions: 1 2 3 4 5 6 7 8 9 10 11 12 13 14 15 16 17 18 19 20 21 22 23 24 25 26 27 28 29 30 31 32 33 34 35 36 37 38 39 40 41 42 43 44 45 46 47 48 49

002
FTUS43 KGRB 280334 AAD
TAFGRB
TAF AMD
KGRB 280334Z 2804/2824 35003KT P6SM SCT012 BKN025
      TEMPO 2808/2812 3SM BR BKN012
     FM281400 04010G17KT P6SM SCT250=

USA.gov is the U.S. government's official web portal to all federal, state and local government web resources and services.